Location: ????????
(55.6189°N, 38.3031°E)
Time: 02:53:31
(UTC+00:00)

Cosmos 2360 Rocket - Pass Details

Date: 15 November 2019
Orbit: 832 x 847 km, 71.0° (Epoch: 13 December)

Event Time Altitude Azimuth Distance (km) Brightness Sun altitude
Exits shadow 03:37:37 - 322° (NW) 2,608 4.3 -11.5°
Reaches altitude 10° 03:37:58 10° 321° (NW) 2,482 4.2 -11.4°
Maximum altitude 03:43:33 60° 244° (WSW) 973 2.3 -10.7°
Drops below altitude 10° 03:49:06 10° 166° (SSE) 2,467 5.1 -9.9°
Sets 03:51:34 0° 162° (SSE) 3,397 5.9 -9.6°
